MST,Max TemperatureF,Mean TemperatureF,Min TemperatureF,Max Dew PointF,MeanDew PointF,Min DewpointF,Max Humidity, Mean Humidity, Min Humidity, Max Sea Level PressureIn, Mean Sea Level PressureIn, Min Sea Level PressureIn, Max VisibilityMiles, Mean VisibilityMiles, Min VisibilityMiles, Max Wind SpeedMPH, Mean Wind SpeedMPH, Max Gust SpeedMPH,PrecipitationIn, CloudCover, Events, WindDirDegrees
2013-11-1,56,43,30,34,26,20,73,50,26,30.24,30.06,29.82,10,10,10,38,18,46,T,2,,322
2013-11-2,60,44,27,30,24,20,69,47,24,30.31,30.12,29.77,10,10,10,25,15,31,0.00,0,,202
2013-11-3,73,54,34,31,28,20,75,45,14,29.75,29.60,29.47,10,10,10,25,11,31,0.00,0,,257
2013-11-4,50,40,30,34,28,23,85,62,39,30.11,30.00,29.73,10,10,10,36,12,43,0.00,2,,32
2013-11-5,38,31,24,36,32,21,92,87,82,30.25,30.04,29.91,10,8,2,31,13,39,0.16,6,Rain,19
2013-11-6,54,38,22,25,21,15,88,55,22,30.38,30.30,30.24,10,10,10,20,8,23,0.00,0,,264
2013-11-7,57,43,28,30,26,22,78,53,28,30.52,30.34,30.02,10,10,10,20,11,24,0.00,0,,219
2013-11-8,77,56,35,32,28,22,76,45,13,29.98,29.86,29.74,10,10,10,30,11,38,0.00,0,,293
2013-11-9,61,45,29,33,29,25,82,59,35,30.31,30.19,29.99,10,10,10,13,7,16,0.00,0,,153
2013-11-10,57,42,27,43,38,25,92,77,61,30.33,30.25,30.16,10,10,10,21,11,29,0.00,4,,198
2013-11-11,42,34,25,34,28,19,100,82,64,30.79,30.44,30.13,10,6,0,22,13,26,0.00,6,Fog,10
2013-11-12,49,36,23,30,25,21,88,67,46,30.83,30.68,30.45,10,10,10,18,11,25,T,4,,199
2013-11-13,70,50,29,34,28,24,78,48,18,30.42,30.14,29.88,10,10,10,17,12,23,0.00,0,,213
2013-11-14,57,45,33,36,32,23,79,60,40,30.03,29.94,29.86,10,10,10,28,13,36,0.00,0,,332
2013-11-15,64,49,33,36,30,25,89,57,25,29.83,29.62,29.39,10,10,10,32,15,38,0.00,0,,194
2013-11-16,61,47,33,32,27,25,75,50,25,29.47,29.39,29.31,10,10,10,22,11,28,0.00,0,,215
2013-11-17,52,36,20,34,16,6,82,49,16,30.17,29.89,29.47,10,10,10,39,16,47,0.00,0,,293
2013-11-18,59,42,25,17,13,9,55,36,17,30.25,30.16,30.06,10,10,10,29,14,36,0.00,0,,205
2013-11-19,55,41,26,25,21,17,68,48,28,30.02,29.84,29.73,10,10,10,20,12,23,0.00,0,,196
2013-11-20,64,50,36,30,27,23,70,48,25,29.89,29.81,29.73,10,10,10,18,6,23,0.00,1,,288
2013-11-21,44,29,14,29,12,8,80,71,62,30.75,30.37,29.97,10,7,2,31,22,38,0.01,8,Snow,355
2013-11-22,31,23,14,19,13,8,80,62,43,30.76,30.70,30.66,10,10,10,18,6,23,0.00,4,,318
2013-11-23,33,27,21,19,14,12,75,59,43,30.80,30.70,30.58,10,10,10,15,8,18,0.00,4,,149
2013-11-24,38,29,20,22,19,13,92,70,48,30.55,30.24,30.02,10,10,7,40,21,49,0.00,5,,190
2013-11-25,45,30,14,24,18,11,91,66,41,30.37,30.25,30.07,10,10,10,25,11,32,0.00,4,,330
2013-11-26,42,30,17,24,17,13,91,65,38,30.48,30.43,30.35,10,10,10,20,9,23,0.00,0,,299
2013-11-27,60,42,23,24,18,15,74,47,19,30.38,30.17,30.03,10,10,10,24,12,29,0.00,0,,231
2013-11-28,44,31,18,23,19,17,91,64,37,30.39,30.32,30.14,10,10,10,16,8,18,0.00,0,,76
2013-11-29,54,37,19,31,23,16,100,68,35,30.30,30.19,30.09,10,8,0,17,9,21,0.00,3,Fog,215
2013-11-30,63,44,24,25,21,17,75,49,22,30.23,30.17,30.09,10,10,10,13,5,15,0.00,0,,272